Time,TemperatureF,DewpointF,PressureIn,WindDirection,WindDirectionDegrees,WindSpeedMPH,WindSpeedGustMPH,Humidity,HourlyPrecipIn,Conditions,Clouds,dailyrainin,SoftwareType,DateUTC
2013-11-19 00:07:00,47.3,32.0,29.64,WNW,284,0.0,4.0,55,0.00,,,0.00,weatherlink.com 1.10,2013-11-19 05:07:00,
2013-11-19 00:22:00,47.5,31.0,29.65,SW,229,0.0,5.0,54,0.00,,,0.00,weatherlink.com 1.10,2013-11-19 05:22:00,
2013-11-19 00:38:00,47.9,31.0,29.65,SSW,205,2.0,8.0,52,0.00,,,0.00,weatherlink.com 1.10,2013-11-19 05:38:00,
2013-11-19 00:53:00,47.7,31.0,29.65,NNW,331,0.0,8.0,52,0.00,,,0.00,weatherlink.com 1.10,2013-11-19 05:53:00,
2013-11-19 01:08:00,47.3,31.0,29.66,WSW,248,6.0,11.0,53,0.00,,,0.00,weatherlink.com 1.10,2013-11-19 06:08:00,
2013-11-19 01:23:00,47.0,30.0,29.67,WNW,300,3.0,12.0,53,0.00,,,0.00,weatherlink.com 1.10,2013-11-19 06:23:00,
2013-11-19 01:38:00,46.5,29.0,29.68,WSW,241,4.0,17.0,51,0.00,,,0.00,weatherlink.com 1.10,2013-11-19 06:38:00,
2013-11-19 01:53:00,45.6,28.0,29.68,WSW,238,3.0,14.0,50,0.00,,,0.00,weatherlink.com 1.10,2013-11-19 06:53:00,
2013-11-19 02:08:00,44.9,28.0,29.69,WSW,249,4.0,10.0,51,0.00,,,0.00,weatherlink.com 1.10,2013-11-19 07:08:00,
2013-11-19 02:23:00,44.3,27.0,29.69,WNW,295,2.0,10.0,51,0.00,,,0.00,weatherlink.com 1.10,2013-11-19 07:23:00,
2013-11-19 02:38:00,43.8,27.0,29.70,West,260,1.0,14.0,52,0.00,,,0.00,weatherlink.com 1.10,2013-11-19 07:38:00,
2013-11-19 02:53:00,43.3,26.0,29.70,WNW,287,3.0,10.0,51,0.00,,,0.00,weatherlink.com 1.10,2013-11-19 07:53:00,
2013-11-19 03:08:00,42.9,26.0,29.71,WSW,256,2.0,8.0,51,0.00,,,0.00,weatherlink.com 1.10,2013-11-19 08:08:00,
2013-11-19 03:23:00,42.5,25.0,29.71,ENE,57,0.0,15.0,50,0.00,,,0.00,weatherlink.com 1.10,2013-11-19 08:23:00,
2013-11-19 03:38:00,42.0,25.0,29.73,NNW,329,1.0,9.0,51,0.00,,,0.00,weatherlink.com 1.10,2013-11-19 08:38:00,
2013-11-19 03:53:00,41.8,25.0,29.73,West,278,6.0,11.0,51,0.00,,,0.00,weatherlink.com 1.10,2013-11-19 08:53:00,
2013-11-19 04:08:00,41.6,25.0,29.73,WNW,286,4.0,9.0,51,0.00,,,0.00,weatherlink.com 1.10,2013-11-19 09:08:00,
2013-11-19 04:23:00,41.4,25.0,29.73,SW,229,7.0,14.0,52,0.00,,,0.00,weatherlink.com 1.10,2013-11-19 09:23:00,
2013-11-19 04:38:00,40.9,25.0,29.74,SSW,213,2.0,8.0,53,0.00,,,0.00,weatherlink.com 1.10,2013-11-19 09:38:00,
2013-11-19 04:53:00,40.6,25.0,29.74,West,273,2.0,7.0,54,0.00,,,0.00,weatherlink.com 1.10,2013-11-19 09:53:00,
2013-11-19 05:08:00,40.6,24.0,29.75,NW,310,0.0,9.0,53,0.00,,,0.00,weatherlink.com 1.10,2013-11-19 10:08:00,
2013-11-19 05:23:00,40.6,24.0,29.75,WSW,248,0.0,6.0,53,0.00,,,0.00,weatherlink.com 1.10,2013-11-19 10:23:00,
2013-11-19 05:38:00,40.6,24.0,29.76,SW,234,2.0,7.0,53,0.00,,,0.00,weatherlink.com 1.10,2013-11-19 10:38:00,
2013-11-19 05:53:00,40.9,25.0,29.77,SSW,209,6.0,8.0,53,0.00,,,0.00,weatherlink.com 1.10,2013-11-19 10:53:00,
2013-11-19 06:08:00,41.3,25.0,29.77,West,272,1.0,12.0,53,0.00,,,0.00,weatherlink.com 1.10,2013-11-19 11:08:00,
2013-11-19 06:24:00,41.4,25.0,29.79,West,261,1.0,6.0,53,0.00,,,0.00,weatherlink.com 1.10,2013-11-19 11:24:00,
2013-11-19 06:39:00,41.4,26.0,29.79,WSW,256,5.0,7.0,54,0.00,,,0.00,weatherlink.com 1.10,2013-11-19 11:39:00,
2013-11-19 06:54:00,41.4,26.0,29.80,WSW,240,8.0,11.0,54,0.00,,,0.00,weatherlink.com 1.10,2013-11-19 11:54:00,
2013-11-19 07:09:00,41.5,26.0,29.81,WNW,283,2.0,9.0,55,0.00,,,0.00,weatherlink.com 1.10,2013-11-19 12:09:00,
2013-11-19 07:24:00,41.5,26.0,29.82,WSW,253,4.0,10.0,55,0.00,,,0.00,weatherlink.com 1.10,2013-11-19 12:24:00,
2013-11-19 07:39:00,41.6,26.0,29.82,NNW,341,5.0,17.0,55,0.00,,,0.00,weatherlink.com 1.10,2013-11-19 12:39:00,
2013-11-19 07:54:00,41.6,26.0,29.84,NW,326,9.0,10.0,54,0.00,,,0.00,weatherlink.com 1.10,2013-11-19 12:54:00,
2013-11-19 08:09:00,41.6,26.0,29.84,NW,306,4.0,11.0,54,0.00,,,0.00,weatherlink.com 1.10,2013-11-19 13:09:00,
2013-11-19 08:24:00,40.6,25.0,29.86,NE,38,5.0,14.0,55,0.00,,,0.00,weatherlink.com 1.10,2013-11-19 13:24:00,
2013-11-19 08:39:00,40.1,24.0,29.87,NNE,30,1.0,12.0,54,0.00,,,0.00,weatherlink.com 1.10,2013-11-19 13:39:00,
2013-11-19 08:54:00,39.9,23.0,29.88,WNW,302,2.0,10.0,51,0.00,,,0.00,weatherlink.com 1.10,2013-11-19 13:54:00,
2013-11-19 09:09:00,40.1,21.0,29.89,WNW,288,3.0,15.0,47,0.00,,,0.00,weatherlink.com 1.10,2013-11-19 14:09:00,
2013-11-19 09:24:00,40.9,21.0,29.89,West,274,1.0,10.0,45,0.00,,,0.00,weatherlink.com 1.10,2013-11-19 14:24:00,
2013-11-19 09:39:00,41.2,21.0,29.91,WNW,292,7.0,10.0,45,0.00,,,0.00,weatherlink.com 1.10,2013-11-19 14:39:00,
2013-11-19 09:54:00,40.9,20.0,29.91,WNW,294,2.0,15.0,43,0.00,,,0.00,weatherlink.com 1.10,2013-11-19 14:54:00,
2013-11-19 10:09:00,41.3,20.0,29.91,WSW,237,6.0,15.0,42,0.00,,,0.00,weatherlink.com 1.10,2013-11-19 15:09:00,
2013-11-19 10:24:00,41.8,20.0,29.91,West,279,2.0,10.0,41,0.00,,,0.00,weatherlink.com 1.10,2013-11-19 15:24:00,
2013-11-19 10:39:00,41.9,20.0,29.92,North,350,2.0,11.0,42,0.00,,,0.00,weatherlink.com 1.10,2013-11-19 15:39:00,
2013-11-19 10:54:00,41.7,20.0,29.92,NNE,12,3.0,12.0,42,0.00,,,0.00,weatherlink.com 1.10,2013-11-19 15:54:00,
2013-11-19 11:09:00,41.8,20.0,29.92,WNW,292,5.0,14.0,42,0.00,,,0.00,weatherlink.com 1.10,2013-11-19 16:09:00,
2013-11-19 11:24:00,42.1,20.0,29.93,NW,305,1.0,13.0,42,0.00,,,0.00,weatherlink.com 1.10,2013-11-19 16:24:00,
2013-11-19 11:54:00,42.1,20.0,29.93,NW,308,1.0,10.0,41,0.00,,,0.00,weatherlink.com 1.10,2013-11-19 16:54:00,
2013-11-19 12:09:00,42.9,20.0,29.93,NNE,13,5.0,9.0,40,0.00,,,0.00,weatherlink.com 1.10,2013-11-19 17:09:00,
2013-11-19 12:24:00,42.4,20.0,29.94,WNW,298,3.0,9.0,41,0.00,,,0.00,weatherlink.com 1.10,2013-11-19 17:24:00,
2013-11-19 12:39:00,42.1,20.0,29.94,West,277,4.0,10.0,41,0.00,,,0.00,weatherlink.com 1.10,2013-11-19 17:39:00,
2013-11-19 12:54:00,42.8,20.0,29.94,NNW,346,4.0,12.0,41,0.00,,,0.00,weatherlink.com 1.10,2013-11-19 17:54:00,
2013-11-19 13:09:00,43.0,21.0,29.95,NE,51,3.0,6.0,41,0.00,,,0.00,weatherlink.com 1.10,2013-11-19 18:09:00,
2013-11-19 13:24:00,43.1,20.0,29.95,SW,234,12.0,12.0,39,0.00,,,0.00,weatherlink.com 1.10,2013-11-19 18:24:00,
2013-11-19 13:54:00,42.9,19.0,29.96,SW,224,10.0,11.0,39,0.00,,,0.00,weatherlink.com 1.10,2013-11-19 18:54:00,
2013-11-19 14:09:00,43.4,20.0,29.97,NW,315,4.0,9.0,39,0.00,,,0.00,weatherlink.com 1.10,2013-11-19 19:09:00,
2013-11-19 14:24:00,43.1,19.0,29.98,NNW,344,3.0,10.0,38,0.00,,,0.00,weatherlink.com 1.10,2013-11-19 19:24:00,
2013-11-19 14:39:00,42.8,19.0,29.98,WSW,256,4.0,10.0,39,0.00,,,0.00,weatherlink.com 1.10,2013-11-19 19:39:00,
2013-11-19 14:54:00,42.6,19.0,29.99,West,273,4.0,12.0,39,0.00,,,0.00,weatherlink.com 1.10,2013-11-19 19:54:00,
2013-11-19 15:10:00,42.4,19.0,30.01,WNW,303,6.0,13.0,40,0.00,,,0.00,weatherlink.com 1.10,2013-11-19 20:10:00,
2013-11-19 15:25:00,42.0,19.0,30.02,NW,315,1.0,11.0,40,0.00,,,0.00,weatherlink.com 1.10,2013-11-19 20:25:00,
2013-11-19 15:40:00,41.5,19.0,30.02,NNW,348,1.0,12.0,40,0.00,,,0.00,weatherlink.com 1.10,2013-11-19 20:40:00,
2013-11-19 15:55:00,40.6,19.0,30.02,WNW,294,6.0,12.0,42,0.00,,,0.00,weatherlink.com 1.10,2013-11-19 20:55:00,
2013-11-19 16:10:00,40.0,19.0,30.04,West,259,3.0,10.0,43,0.00,,,0.00,weatherlink.com 1.10,2013-11-19 21:10:00,
2013-11-19 16:25:00,39.5,19.0,30.05,WNW,294,1.0,6.0,44,0.00,,,0.00,weatherlink.com 1.10,2013-11-19 21:25:00,
2013-11-19 16:40:00,39.1,19.0,30.07,WNW,285,1.0,8.0,45,0.00,,,0.00,weatherlink.com 1.10,2013-11-19 21:40:00,
2013-11-19 16:55:00,38.8,19.0,30.08,NNW,334,0.0,10.0,45,0.00,,,0.00,weatherlink.com 1.10,2013-11-19 21:55:00,
2013-11-19 17:10:00,38.4,19.0,30.09,NE,34,1.0,8.0,46,0.00,,,0.00,weatherlink.com 1.10,2013-11-19 22:10:00,
2013-11-19 17:25:00,38.1,19.0,30.09,NNE,13,0.0,7.0,46,0.00,,,0.00,weatherlink.com 1.10,2013-11-19 22:25:00,
2013-11-19 17:40:00,37.5,19.0,30.10,WNW,290,4.0,7.0,48,0.00,,,0.00,weatherlink.com 1.10,2013-11-19 22:40:00,
2013-11-19 17:55:00,37.3,19.0,30.11,NNW,328,4.0,7.0,48,0.00,,,0.00,weatherlink.com 1.10,2013-11-19 22:55:00,
2013-11-19 18:10:00,37.0,19.0,30.12,NW,320,1.0,5.0,49,0.00,,,0.00,weatherlink.com 1.10,2013-11-19 23:10:00,
2013-11-19 18:25:00,36.5,20.0,30.13,NNW,337,0.0,3.0,51,0.00,,,0.00,weatherlink.com 1.10,2013-11-19 23:25:00,
2013-11-19 18:40:00,35.9,20.0,30.14,West,259,0.0,4.0,53,0.00,,,0.00,weatherlink.com 1.10,2013-11-19 23:40:00,
2013-11-19 18:55:00,35.2,20.0,30.14,WNW,290,1.0,3.0,54,0.00,,,0.00,weatherlink.com 1.10,2013-11-19 23:55:00,
2013-11-19 19:10:00,34.8,20.0,30.15,NNW,331,0.0,1.0,55,0.00,,,0.00,weatherlink.com 1.10,2013-11-20 00:10:00,
2013-11-19 19:25:00,34.6,19.0,30.16,NW,313,1.0,4.0,54,0.00,,,0.00,weatherlink.com 1.10,2013-11-20 00:25:00,
2013-11-19 19:40:00,34.3,20.0,30.17,NW,310,1.0,3.0,56,0.00,,,0.00,weatherlink.com 1.10,2013-11-20 00:40:00,
2013-11-19 19:55:00,34.2,20.0,30.18,NW,312,1.0,6.0,56,0.00,,,0.00,weatherlink.com 1.10,2013-11-20 00:55:00,
2013-11-19 20:10:00,33.9,20.0,30.18,West,278,2.0,4.0,56,0.00,,,0.00,weatherlink.com 1.10,2013-11-20 01:10:00,
2013-11-19 20:25:00,34.0,19.0,30.19,West,278,6.0,6.0,55,0.00,,,0.00,weatherlink.com 1.10,2013-11-20 01:25:00,
2013-11-19 20:40:00,33.9,20.0,30.19,NNW,327,3.0,7.0,56,0.00,,,0.00,weatherlink.com 1.10,2013-11-20 01:40:00,
2013-11-19 20:55:00,33.7,19.0,30.20,WNW,299,0.0,4.0,56,0.00,,,0.00,weatherlink.com 1.10,2013-11-20 01:55:00,
2013-11-19 21:10:00,33.2,19.0,30.20,NNE,19,1.0,4.0,57,0.00,,,0.00,weatherlink.com 1.10,2013-11-20 02:10:00,
2013-11-19 21:26:00,32.7,19.0,30.21,West,278,0.0,6.0,58,0.00,,,0.00,weatherlink.com 1.10,2013-11-20 02:26:00,
2013-11-19 21:41:00,32.8,19.0,30.21,West,273,0.0,14.0,56,0.00,,,0.00,weatherlink.com 1.10,2013-11-20 02:41:00,
2013-11-19 21:56:00,32.6,18.0,30.22,West,276,0.0,4.0,56,0.00,,,0.00,weatherlink.com 1.10,2013-11-20 02:56:00,
2013-11-19 22:11:00,32.5,17.0,30.23,WNW,294,3.0,10.0,54,0.00,,,0.00,weatherlink.com 1.10,2013-11-20 03:11:00,
2013-11-19 22:26:00,32.5,17.0,30.24,West,269,5.0,12.0,53,0.00,,,0.00,weatherlink.com 1.10,2013-11-20 03:26:00,
2013-11-19 22:41:00,32.3,17.0,30.25,WNW,298,5.0,10.0,53,0.00,,,0.00,weatherlink.com 1.10,2013-11-20 03:41:00,
2013-11-19 22:56:00,31.9,17.0,30.25,NW,317,2.0,6.0,54,0.00,,,0.00,weatherlink.com 1.10,2013-11-20 03:56:00,
2013-11-19 23:11:00,31.5,16.0,30.26,West,281,0.0,4.0,54,0.00,,,0.00,weatherlink.com 1.10,2013-11-20 04:11:00,
2013-11-19 23:26:00,31.2,16.0,30.26,NNW,333,1.0,5.0,54,0.00,,,0.00,weatherlink.com 1.10,2013-11-20 04:26:00,
2013-11-19 23:41:00,31.0,16.0,30.26,NNW,344,0.0,7.0,54,0.00,,,0.00,weatherlink.com 1.10,2013-11-20 04:41:00,
2013-11-19 23:56:00,30.7,16.0,30.26,NNW,340,2.0,6.0,55,0.00,,,0.00,weatherlink.com 1.10,2013-11-20 04:56:00,